Regional Weather Roundup
Issued by NWS

Home | Current Version | Previous Version | Text Only | Print | Product List | Glossary Off
Versions: 1 2 3 4 5 6 7 8 9 10 11 12 13 14 15 16 17 18 19 20 21 22 23 24 25 26 27 28 29 30 31 32 33 34 35 36 37 38 39 40 41 42 43 44 45 46 47 48 49 50

000
ASUS43 KDTX 260610
RWRMI
MICHIGAN HOURLY REGIONAL WEATHER ROUNDUP
NATIONAL WEATHER SERVICE DETROIT/PONTIAC MI
200 AM EDT SUN MAR 26 2017

NOTE: "FAIR" INDICATES FEW OR NO CLOUDS BELOW 12,000 FEET WITH NO
SIGNIFICANT WEATHER AND/OR OBSTRUCTION TO VISIBILITY.

MIZ047>049-052>055-059>063-066>070-074>076-081>083-260700-
SOUTHEAST LOWER MICHIGAN

CITY           SKY/WX    TMP DP  RH WIND       PRES   REMARKS
ADRIAN         CLOUDY    39  36  89 E14       30.08F WCI  31
6HR MIN TEMP:  39; 6HR MAX TEMP:  42;

ALMA           CLOUDY    37  37  99 NE9       30.14S WCI  31
ANN ARBOR      CLOUDY    40  37  89 NE9       30.09F WCI  34
BAD AXE        MIX PCPN  36  32  87 E10       30.17F WCI  28
6HR MIN TEMP:  36; 6HR MAX TEMP:  37;

CARO           CLOUDY    37  34  89 E7        30.14F WCI  31
DETROIT CITY   PTCLDY    39  36  89 E12       30.13F WCI  32
6HR MIN TEMP:  39; 6HR MAX TEMP:  41;

DETROIT        CLOUDY    40  36  86 E12       30.12F WCI  33
6HR MIN TEMP:  40; 6HR MAX TEMP:  44;

FLINT          CLOUDY    39  36  89 E7        30.12F WCI  34
6HR MIN TEMP:  39; 6HR MAX TEMP:  41;

GROSSE ILE     CLOUDY    38  35  88 E9        30.10F WCI  32
6HR MIN TEMP:  38; 6HR MAX TEMP:  42;

HILLSDALE      CLOUDY    37  36  93 E7        30.06R WCI  32
HOWELL         CLOUDY    40  37  89 E7        30.09F WCI  35
6HR MIN TEMP:  40; 6HR MAX TEMP:  42;


CITY           SKY/WX    TMP DP  RH WIND       PRES   REMARKS
JACKSON        CLOUDY    41  37  86 E14       30.06F
6HR MIN TEMP:  41; 6HR MAX TEMP:  44;

LAMBERTVILLE   CLOUDY    38  35  88 E12G23    30.08F WCI  31
6HR MIN TEMP:  38; 6HR MAX TEMP:  39;

LANSING        CLOUDY    41  37  86 E8        30.10F
6HR MIN TEMP:  41; 6HR MAX TEMP:  43; 6HR PCP: TRACE;

LAPEER         CLOUDY    36  35  94 E6        30.14F WCI  31
6HR MIN TEMP:  36; 6HR MAX TEMP:  39;

MASON          CLOUDY    40  38  91 E8        30.08F
MONROE         CLOUDY    39  37  93 E7        30.09F WCI  34
6HR MIN TEMP:  39; 6HR MAX TEMP:  42;

MT. CLEMENS    CLOUDY    38  38  99 E7        30.12F WCI  33
6HR MIN TEMP:  38; 6HR MAX TEMP:  40;

PONTIAC        CLOUDY    38  34  85 E12       30.10F WCI  30
6HR MIN TEMP:  38; 6HR MAX TEMP:  40;

PORT HOPE        N/A     35  33  92 E10       30.18F WCI  27
6HR MIN TEMP:  34; 6HR MAX TEMP:  35; 6HR PCP:  0.01;

PORT HURON     CLOUDY    37  34  87 NE8       30.15F WCI  31
TRI CITIES     CLOUDY    37  36  96 NE12      30.15F WCI  29
6HR MIN TEMP:  37; 6HR MAX TEMP:  39; 6HR PCP:  0.03;

MIDLAND        CLOUDY    37  35  93 NE13      30.15F WCI  28
6HR MIN TEMP:  36; 6HR MAX TEMP:  37; 6HR PCP:  0.09;

TROY           MOCLDY    39  35  85 E6        30.14F WCI  35
SAGINAW HB     CLOUDY    37  32  81 NE7       30.15F WCI  32
$$
MIZ043>046-050>051-056>058-064>065-071>073-077>080-260700-
SOUTHWEST LOWER MICHIGAN

CITY           SKY/WX    TMP DP  RH WIND       PRES   REMARKS
BATTLE CREEK   LGT RAIN  43  41  93 E8        30.06F
6HR MIN TEMP:  43; 6HR MAX TEMP:  46; 6HR PCP:  0.09;

BENTON HARBOR  CLOUDY    48  45  89 E12       29.98F
6HR MIN TEMP:  48; 6HR MAX TEMP:  50; 6HR PCP:  0.02;

BIG RAPIDS     FLURRIES  36  34  92 E12       30.09F WCI  28
6HR MIN TEMP:  35; 6HR MAX TEMP:  36; 6HR PCP:  0.10;

COLDWATER      CLOUDY    43  41  91 E8        30.06F
6HR MIN TEMP:  43; 6HR MAX TEMP:  47;

FREMONT        LGT RAIN  38  37  98 E10G18    30.05S WCI  31
HOLLAND        LGT RAIN  44  41  89 E14       30.03S
6HR MIN TEMP:  43; 6HR MAX TEMP:  45; 6HR PCP:  0.30;

GRAND RAPIDS   LGT RAIN  41  50 100 E15       30.06F
6HR MIN TEMP:  41; 6HR MAX TEMP:  41; 6HR PCP:  0.38;

IONIA          LGT RAIN  39  38  97 NE14G20   30.08F WCI  30
6HR MIN TEMP:  39; 6HR MAX TEMP:  39; 6HR PCP:  0.22;

KALAMAZOO      CLOUDY    44  41  89 E8        30.05F
6HR MIN TEMP:  44; 6HR MAX TEMP:  47; 6HR PCP:  0.35;

LUDINGTON      LGT RAIN  38  37  99 E12G20    30.03F WCI  30
6HR MIN TEMP:  37; 6HR MAX TEMP:  39; 6HR PCP:  0.14;

MARSHALL       LGT RAIN  42  41  97 CALM      30.07F
6HR MIN TEMP:  42; 6HR MAX TEMP:  45; 6HR PCP:  0.01;

MOUNT PLEASANT CLOUDY    37  35  93 NE7       30.14F WCI  31
6HR MIN TEMP:  36; 6HR MAX TEMP:  37; 6HR PCP:  0.81;

MUSKEGON       LGT RAIN  42  40  92 E14G24    30.03F
6HR MIN TEMP:  41; 6HR MAX TEMP:  42; 6HR PCP:  0.04;

SOUTH HAVEN    CLOUDY    46  45  97 E10       30.00F
$$
MIZ016>042-260700-
NORTHERN LOWER MICHIGAN

CITY           SKY/WX    TMP DP  RH WIND       PRES   REMARKS
ALPENA         LGT RAIN  34  31  88 E9        30.24F WCI  27
6HR MIN TEMP:  33; 6HR MAX TEMP:  35; 6HR PCP:  0.01;

BEAVER ISLAND  MIX PCPN  32  31  97 E10G17    30.16F WCI  23
6HR MIN TEMP:  32; 6HR MAX TEMP:  33;

BELLAIRE       MIX PCPN  36  32  87 E5        30.14F WCI  32
6HR MIN TEMP:  34; 6HR MAX TEMP:  37;

CADILLAC       LGT RAIN  34  33  96 E16G22    30.09F WCI  24
CHARLEVOIX     LGT SNOW  34  33  96 E15       30.16F WCI  24
6HR MIN TEMP:  33; 6HR MAX TEMP:  37;

FRANKFORT      LGT RAIN  37  34  88 E7        30.07F WCI  32
GAYLORD        FRZ RAIN  34  29  82 VRB7      30.14F WCI  28
6HR MIN TEMP:  32; 6HR MAX TEMP:  34; 6HR PCP:  0.03;

GRAYLING       RAIN      32  32 100 E9        30.15F WCI  24
HARBOR SPRINGS MIX PCPN  32  31  96 E13G21    30.16F WCI  22
HOUGHTON LAKE  LGT RAIN  34  32  92 E13G22    30.14F WCI  25
6HR MIN TEMP:  33; 6HR MAX TEMP:  34; 6HR PCP:  0.14;

MANISTEE       LGT RAIN  38  36  92 E12       30.05F WCI  30
OSCODA         MIX PCPN  36  34  92 NE9       30.21F WCI  29
6HR MIN TEMP:  34; 6HR MAX TEMP:  36;

PELLSTON       MIX PCPN  32  27  81 E12       30.20F WCI  23
6HR MIN TEMP:  32; 6HR MAX TEMP:  34; 6HR PCP:  0.06;

ROGERS CITY    MIX PCPN  33  30  90 E13         N/A  WCI  23
TRAVERSE CITY  CLOUDY    37  34  89 E8        30.11F WCI  31
6HR MIN TEMP:  36; 6HR MAX TEMP:  38; 6HR PCP:  0.04;

$$
MIZ007>008-015-260700-
EASTERN UPPER MICHIGAN

CITY           SKY/WX    TMP DP  RH WIND       PRES   REMARKS
KINROSS        CLOUDY    30  21  69 E18G24    30.24F WCI  18
6HR MIN TEMP:  30; 6HR MAX TEMP:  34; 6HR PCP: TRACE;

MACKINAC ISLAN MIX PCPN  32  26  79 E17G33    30.21F WCI  20
6HR MIN TEMP:  31; 6HR MAX TEMP:  33;

NEWBERRY       CLOUDY    31  22  71 E8        30.19F WCI  23
6HR MIN TEMP:  31; 6HR MAX TEMP:  34;

S. S. MARIE    LGT RAIN  33  17  51 E8G17     30.25F WCI  26
6HR MIN TEMP:  32; 6HR MAX TEMP:  34; 6HR PCP: TRACE;

MUNISING         N/A     32  28  85 S8        30.16F WCI  25
6HR MIN TEMP:  32; 6HR MAX TEMP:  38;

$$
MIZ004>006-011>014-085-260700-
CENTRAL UPPER MICHIGAN

CITY           SKY/WX    TMP DP  RH WIND       PRES   REMARKS
MANISTIQUE     MIX PCPN  30  30 100 E12G21    30.17F WCI  21
ESCANABA       MIX PCPN  32  31  96 E12       30.16F WCI  23
6HR MIN TEMP:  32; 6HR MAX TEMP:  35; 6HR PCP:  0.06;

MENOMINEE      MIX PCPN  34  32  93 E14       30.11  WCI  24
SAWYER-GWINN   FLURRIES  30  28  93 SE10G18   30.13F WCI  21
6HR MIN TEMP:  30; 6HR MAX TEMP:  34;

$$
MIZ001>003-009>011-084-260700-
WESTERN UPPER MICHIGAN

CITY           SKY/WX    TMP DP  RH WIND       PRES   REMARKS
IRON MOUNTAIN  FRZ RAIN  32  28  85 E10       30.10F WCI  24
6HR MIN TEMP:  32; 6HR MAX TEMP:  37; 6HR PCP: TRACE;

HOUGHTON       CLOUDY    33  26  75 E16       30.10F WCI  23
6HR MIN TEMP:  30; 6HR MAX TEMP:  33;

COPPER HARBOR    N/A     34  26  72 S5        30.16F WCI  30
6HR MIN TEMP:  29; 6HR MAX TEMP:  36;

IRONWOOD       MIX PCPN  32  30  92 CALM      30.07F
6HR MIN TEMP:  32; 6HR MAX TEMP:  37; 6HR PCP: TRACE;

$$

ABBREVIATIONS USED IN REMARKS
   TC - TEMPERATURE IN CELSIUS
  WCI - WIND CHILL INDEX
   HX - HEAT INDEX
  VSB - VISIBILITY




USA.gov is the U.S. government's official web portal to all federal, state and local government web resources and services.